Date String (YYYY-MM-DD hh:mm:ss) UTC,Instrument flags,Ambient pressure (hPa),Sample flow (lpm),Bypass flow (lpm),Sample temperature (°C),Ambient temperature (°C),ASC tube jacket temperature (°C),LED temperature (°C),Box temperature (°C),Sample RH (%),Span deviation,Mass concentration (μg/m³),Mass concentration (μg/m³),Mass concentration (μg/m³)
DateTimeUTC,F1_M11,P_M11,Q1_M11,Q2_M11,T1_M11,T2_M11,T3_M11,T4_M11,T5_M11,U1_M11,ZSPAN_M11,X0_M11,X2_M11,X1_M11
2022-03-11 04:00:00,,0826.0,5.00,0.00,22.3,22.2,00.0,31.3,24.1,06.1,0000.4,0011.73,0008.67,0008.26
2022-03-11 04:01:00,,0826.0,5.00,0.00,22.3,21.9,00.0,31.3,23.9,06.1,0000.8,0011.60,0008.70,0008.29
2022-03-11 04:02:00,,0826.0,5.01,0.00,22.2,21.7,00.0,31.3,23.8,06.1,0001.3,0011.56,0008.72,0008.30
2022-03-11 04:03:00,,0825.9,5.00,0.00,22.2,21.5,00.0,31.3,23.7,06.1,0001.4,0011.58,0008.75,0008.33
2022-03-11 04:04:00,,0825.8,5.00,0.00,22.1,21.3,00.0,31.3,23.6,06.1,0001.7,0011.44,0008.73,0008.35
2022-03-11 04:05:00,,0825.8,5.00,0.00,22.0,21.2,00.0,31.2,23.6,06.2,0001.5,0011.68,0008.74,0008.34
2022-03-11 04:06:00,,0825.9,4.99,0.00,22.0,21.1,00.0,31.2,23.5,06.2,0001.9,0011.67,0008.74,0008.32
2022-03-11 04:07:00,,0825.9,5.00,0.00,21.9,21.2,00.0,31.2,23.5,06.2,0000.5,0011.67,0008.73,0008.33
2022-03-11 04:08:00,,0826.0,5.00,0.00,22.0,21.9,00.0,31.2,23.7,06.2,0000.0,0011.98,0008.73,0008.33
2022-03-11 04:09:00,,0826.0,5.01,0.00,22.2,22.5,00.0,31.2,24.0,06.1,0000.3,0011.99,0008.72,0008.33
2022-03-11 04:10:00,,0826.0,5.00,0.00,22.3,23.0,00.0,31.3,24.2,06.1,0000.0,0012.08,0008.70,0008.30
2022-03-11 04:11:00,,0826.1,5.00,0.00,22.3,22.8,00.0,31.3,24.2,06.1,0000.0,0012.34,0008.68,0008.26
2022-03-11 04:12:00,,0826.0,5.01,0.00,22.3,22.4,00.0,31.3,24.1,06.1,0000.0,0012.38,0008.64,0008.22
2022-03-11 04:13:00,,0826.0,5.00,0.00,22.3,22.1,00.0,31.3,23.9,06.1,0000.0,0012.37,0008.63,0008.21
2022-03-11 04:14:00,,0826.1,5.00,0.00,22.2,21.8,00.0,31.3,23.8,06.1,0001.0,0012.58,0008.61,0008.18
2022-03-11 04:15:00,,0826.1,5.00,0.00,22.1,21.6,00.0,31.2,23.7,06.1,0000.6,0012.79,0008.63,0008.17
2022-03-11 04:16:00,,0826.1,4.99,0.00,22.0,21.4,00.0,31.2,23.6,06.1,0000.0,0012.46,0008.62,0008.16
2022-03-11 04:17:00,,0826.2,4.99,0.00,22.0,21.2,00.0,31.2,23.5,06.2,0000.0,0012.24,0008.57,0008.15
2022-03-11 04:18:00,,0826.2,5.01,0.00,21.9,21.0,00.0,31.2,23.4,06.2,0000.1,0012.02,0008.53,0008.13
2022-03-11 04:19:00,,0826.1,5.00,0.00,21.9,21.3,00.0,31.1,23.5,06.2,0000.7,0011.72,0008.52,0008.12
2022-03-11 04:20:00,,0826.2,4.99,0.00,22.0,22.0,00.0,31.2,23.7,06.1,0000.9,0011.80,0008.53,0008.11
2022-03-11 04:21:00,,0826.2,5.01,0.00,22.2,22.7,00.0,31.2,24.0,06.1,0001.0,0011.75,0008.51,0008.10
2022-03-11 04:22:00,,0826.2,5.00,0.00,22.3,22.9,00.0,31.2,24.1,06.0,0000.7,0011.36,0008.47,0008.09
2022-03-11 04:23:00,,0826.2,5.00,0.00,22.3,22.6,00.0,31.2,24.1,06.0,0000.8,0011.29,0008.46,0008.07
2022-03-11 04:24:00,,0826.3,5.02,0.00,22.2,22.2,00.0,31.2,23.9,06.0,0000.6,0011.20,0008.41,0008.03
2022-03-11 04:25:00,,0826.3,4.99,0.00,22.2,21.9,00.0,31.2,23.8,06.1,-000.0,0011.43,0008.35,0007.99
2022-03-11 04:26:00,,0826.4,4.99,0.00,22.1,21.7,00.0,31.2,23.7,06.1,-000.3,0011.17,0008.27,0007.95
2022-03-11 04:27:00,,0826.4,5.01,0.00,22.0,21.4,00.0,31.2,23.5,06.1,-000.3,0011.08,0008.20,0007.91
2022-03-11 04:28:00,,0826.5,5.00,0.00,21.9,21.3,00.0,31.1,23.4,06.1,0000.2,0011.16,0008.18,0007.88
2022-03-11 04:29:00,,0826.5,4.99,0.00,21.9,21.1,00.0,31.1,23.4,06.2,0000.5,0011.18,0008.17,0007.85
2022-03-11 04:30:00,,0826.5,5.00,0.00,21.9,21.2,00.0,31.1,23.4,06.2,0000.6,0011.15,0008.14,0007.84
2022-03-11 04:31:00,,0826.5,5.01,0.00,22.0,21.9,00.0,31.1,23.7,06.1,0000.1,0011.28,0008.12,0007.82
2022-03-11 04:32:00,,0826.5,4.99,0.00,22.1,22.5,00.0,31.1,23.9,06.1,-000.2,0011.39,0008.11,0007.82
2022-03-11 04:33:00,,0826.5,5.00,0.00,22.2,22.9,00.0,31.2,24.1,06.0,0000.3,0011.47,0008.15,0007.82
2022-03-11 04:34:00,,0826.5,5.01,0.00,22.3,22.6,00.0,31.2,24.1,06.0,0000.6,0011.45,0008.13,0007.81
2022-03-11 04:35:00,,0826.5,4.98,0.00,22.2,22.3,00.0,31.2,24.0,06.1,0000.5,0011.48,0008.13,0007.83
2022-03-11 04:36:00,,0826.5,5.00,0.00,22.2,22.0,00.0,31.2,23.9,06.1,0000.4,0011.18,0008.13,0007.83
2022-03-11 04:37:00,,0826.5,5.00,0.00,22.1,21.8,00.0,31.2,23.8,06.1,0001.0,0011.17,0008.18,0007.84
2022-03-11 04:38:00,,0826.5,5.01,0.00,22.1,21.5,00.0,31.2,23.7,06.1,0001.0,0011.74,0008.22,0007.85
2022-03-11 04:39:00,,0826.5,4.99,0.00,22.0,21.3,00.0,31.1,23.6,06.1,0001.0,0011.93,0008.22,0007.85
2022-03-11 04:40:00,,0826.5,5.02,0.00,21.9,21.1,00.0,31.1,23.4,06.1,0001.4,0011.92,0008.20,0007.85
2022-03-11 04:41:00,,0826.6,5.00,0.00,21.9,21.2,00.0,31.1,23.4,06.2,0000.6,0011.89,0008.17,0007.83
2022-03-11 04:42:00,,0826.6,5.00,0.00,22.0,21.8,00.0,31.1,23.6,06.2,0001.0,0011.71,0008.15,0007.80
2022-03-11 04:43:00,,0826.6,4.99,0.00,22.1,22.5,00.0,31.1,23.9,06.1,0001.1,0011.49,0008.15,0007.78
2022-03-11 04:44:00,,0826.7,5.00,0.00,22.2,23.0,00.0,31.2,24.1,06.1,0001.2,0011.43,0008.09,0007.75
2022-03-11 04:45:00,,0826.6,4.99,0.00,22.3,22.7,00.0,31.2,24.1,06.0,0000.5,0011.47,0008.09,0007.75
2022-03-11 04:46:00,,0826.6,5.00,0.00,22.2,22.4,00.0,31.2,24.0,06.0,0000.8,0011.45,0008.10,0007.75
2022-03-11 04:47:00,,0826.6,5.01,0.00,22.2,22.0,00.0,31.2,23.8,06.1,0000.0,0011.36,0008.10,0007.75
2022-03-11 04:48:00,,0826.6,5.00,0.00,22.1,21.7,00.0,31.2,23.7,06.1,0000.0,0011.41,0008.09,0007.74
2022-03-11 04:49:00,,0826.6,5.00,0.00,22.0,21.5,00.0,31.1,23.6,06.1,0000.0,0011.23,0008.04,0007.72
2022-03-11 04:50:00,,0826.6,4.99,0.00,22.0,21.3,00.0,31.1,23.5,06.1,0000.0,0011.01,0008.04,0007.72
2022-03-11 04:51:00,,0826.6,5.00,0.00,21.9,21.1,00.0,31.1,23.4,06.2,0000.0,0011.03,0008.07,0007.73
2022-03-11 04:52:00,,0826.6,5.01,0.00,21.8,21.0,00.0,31.1,23.3,06.2,0000.0,0011.03,0008.08,0007.72
2022-03-11 04:53:00,,0826.6,4.99,0.00,21.9,21.6,00.0,31.1,23.5,06.2,0000.0,0011.04,0008.07,0007.72
2022-03-11 04:54:00,,0826.6,5.01,0.00,22.0,22.3,00.0,31.1,23.8,06.2,0000.0,0011.00,0008.07,0007.73
2022-03-11 04:55:00,,0826.6,5.00,0.00,22.2,22.9,00.0,31.1,24.0,06.1,0000.0,0010.99,0008.09,0007.74
2022-03-11 04:56:00,,0826.6,5.00,0.00,22.2,22.7,00.0,31.2,24.1,06.1,0000.0,0011.25,0008.11,0007.74
2022-03-11 04:57:00,,0826.6,4.99,0.00,22.2,22.4,00.0,31.1,23.9,06.1,0000.1,0011.60,0008.13,0007.75
2022-03-11 04:58:00,,0826.7,5.00,0.00,22.1,22.0,00.0,31.1,23.8,06.1,0000.3,0011.65,0008.16,0007.77
2022-03-11 04:59:00,,0826.6,5.02,0.00,22.0,21.7,00.0,31.1,23.6,06.1,0000.9,0011.67,0008.21,0007.80
